Location: Unspecified
(0.0000°N, 0.0000°E)
Time: 16:22:51
(UTC+00:00)

COSMOS 2439 - Visible Passes

Search period start: 31 May 2023 00:00
Search period end: 10 June 2023 00:00
Orbit: 1478 x 1510 km, 82.5° (Epoch: 30 May)

Date Brightness Start Highest point End Pass type
(mag) Time Alt. Az. Time Alt. Az. Time Alt. Az.
31 May ? 04:47:16 10° S 04:55:50 56° E 05:04:23 10° NNE visible
01 Jun ? 03:59:41 10° SE 04:06:29 25° E 04:13:15 10° NE visible
01 Jun ? 18:30:35 10° NW 18:36:25 20° W 18:42:17 10° SW visible
02 Jun ? 05:04:41 10° S 05:13:31 88° W 05:22:22 10° N visible
03 Jun ? 04:15:55 10° SSE 04:24:10 45° E 04:32:24 10° NNE visible
04 Jun ? 03:29:01 10° SE 03:34:49 19° E 03:40:34 10° NE visible
04 Jun ? 05:22:44 10° SSW 05:31:12 52° W 05:39:42 10° NNW visible
05 Jun ? 04:33:02 10° S 04:41:52 76° E 04:50:40 10° N visible
06 Jun ? 03:44:42 10° SSE 03:52:31 35° E 04:00:16 10° NNE visible
06 Jun ? 18:18:57 10° WNW 18:22:26 13° W 18:25:55 10° WSW visible
07 Jun ? 02:58:52 10° ESE 03:03:09 14° E 03:07:23 10° ENE visible
07 Jun ? 04:50:50 10° SSW 04:59:32 65° W 05:08:16 10° N visible
08 Jun ? 04:01:30 10° S 04:10:12 62° E 04:18:51 10° NNE visible
09 Jun ? 03:13:40 10° SSE 03:20:50 28° E 03:27:58 10° NE visible
09 Jun ? 05:09:19 10° SSW 05:17:14 38° W 05:25:10 10° NNW visible
